Погода в Эконде

Россия / Красноярский край     65°45′15″N   105°19′41″E
темп.,
°C
ветер,
м/с
пор.,
м/с
влажн.,
%
обл.,
%
осадки,
мм/ч
давл.,
гПа
погр.,
м
15 августа, пн
пн1501:00+8в2395100 0.4 100659
04:00+8всв2292100 0.0 100537
07:00+9всв2388100 0.1 100583
10:00+9св1281100 0.1 1004134
13:00+11вюв1365100 0.1 1003553
16:00+10зюз4480100 0.1 1002175
19:00+9зсз1186100 0.3 100111
22:00+8ссз4588100 0.3 999114
16 августа, вт
вт1601:00+9сз4685100 0.6 997114
04:00+9сз4779100 0.1 996115
07:00+9с477999 0.7 995184
10:00+9ссв5988100 0.8 995516
13:00+13ссв567381 2.1 9941008
16:00+13всв8971100 1.3 994954
19:00+10всв587616 1.3 996244
22:00+9ссв51081100 0.1 996315
17 августа, ср
ср1701:00+9св3685100 0.1 996187
04:00+9ссв71288100 1.5 996461
07:00+9ссв71287100 2.8 996523
10:00+10ссв61084100 0.3 996587
13:00+9ссв61089100 2.5 997621
16:00+10ссв4691100 0.9 998296
19:00+9с479199 1.6 999175
22:00+9ссз3588100 0.3 999104
18 августа, чт
чт1801:00+9с51093100 1.4 999386
04:00+9с51093100 1.3 999397
07:00+9с71188100 2.5 999494
10:00+9с4993100 1.0 1000496
13:00+9с5993100 4.3 1000574
16:00+8с3695100 7.5 1001374
19:00+8ссв61292100 11.1 1002547
22:00+8всв5992100 0.5 1002387
19 августа, пт
пт1901:00+8ссв5992100 0.6 1003341
04:00+8ссв61188100 0.1 1003431
07:00+7ссв61091100 0.7 1004404
10:00+7ссв61190100 1.4 1005528
13:00+6ссв5790100 3.0 1007833
16:00+6св5692100 0.1 1008552
19:00+6св6993100 0.1 1009369
22:00+6св6992100 0.0 1010340